{"data":{"norad_id":61916,"intl_designator":"2024-207E","name":"STARLINK-32541","alt_names":[],"object_type":"PAYLOAD","status":"ACTIVE","operator":null,"country":"US","launch_date":"2024-11-11","launch_site_code":"AFETR","launch_vehicle":null,"mission":null,"orbit_class":"UNKNOWN","rcs_meters":null,"size_class":null,"mass_kg":null,"dimensions":null,"purposes":["comms"],"wikipedia_slug":null,"has_3d_model":false,"image_url":null,"decayed_at":null,"tle_current":{"epoch":"2026-09-21T16:24:07.118208Z","epoch_age_seconds":86659,"freshness":"FRESH","line1":"1 61916U 24207E   26264.68341572  .00012220  00000+0  45279-3 0  9990","line2":"2 61916  42.9991 258.6022 0001173 266.9898  93.0819 15.27582799104655","mean_motion":15.27582799,"eccentricity":0.0001173,"inclination_deg":42.9991,"raan_deg":258.6022,"arg_perigee_deg":266.9898,"mean_anomaly_deg":93.0819,"bstar":0.00045279,"rev_number":10465,"period_min":94.266575988069,"perigee_km":482.23589869357,"apogee_km":483.84553098547,"semimajor_km":6861.1777148395,"source":"CELESTRAK","updated_at":"2026-09-22T09:00:49.449284Z"}}}